Location: Les Thiberg�res
(47.8554°N, 1.0978°W)
Time: 03:49:49
(UTC+00:00)

Daily predictions for brighter satellites

Satellite Brightness Start Highest point End
(mag) Time Altitude Azimuth Time Altitude Azimuth Time Altitude Azimuth
USA 215 4.0 03:15:24 10° NE 03:19:59 47° NE 03:19:59 47° NE
CZ-4C R/B 3.6 03:29:40 34° NE 03:29:40 34° NE 03:33:10 10° NE
Cosmos 2333 Rocket 4.1 03:31:49 23° NNE 03:31:49 23° NNE 03:33:57 10° NNE
USA 229 DEB 4.3 03:35:49 52° SE 03:35:49 52° SE 03:41:21 10° SE
USA 229 4.3 03:35:52 53° SE 03:35:52 53° SE 03:41:26 10° SE
NOSS 3-1 (A) 4.2 03:39:16 59° N 03:40:33 68° NE 03:49:02 10° SE
ATLAS CENTAUR R/B 3.8 03:43:09 23° ENE 03:43:09 23° ENE 03:45:20 10° ENE
Cosmos 1934 Rocket 4.5 03:45:53 10° N 03:52:06 59° ENE 03:58:20 10° SSE
MSX 4.4 03:46:48 10° NNE 03:51:32 55° NE 03:51:32 55° NE
IDEFIX/ARIANE 42P 4.2 03:48:03 10° NNE 03:50:25 27° NNE 03:50:25 27° NNE
Cosmos 2237 Rocket 3.0 04:03:02 43° NNE 04:03:02 43° NNE 04:06:47 10° NNE
Cosmos 2219 Rocket 3.8 04:14:45 23° NNW 04:14:45 23° NNW 04:17:29 10° NNE
PAYLOAD A 4.5 04:08:31 10° NNE 04:12:26 54° NE 04:12:26 54° NE
GEOS 3 Rocket 4.4 04:15:00 10° NE 04:20:08 47° ESE 04:21:26 39° SSE
Cosmos 2360 Rocket 4.4 04:26:01 12° NNW 04:26:01 12° NNW 04:27:16 10° N
Nadezhda 3 Rocket 4.3 04:25:58 52° NW 04:25:58 52° NW 04:31:06 10° N
ADEOS 3.6 04:20:23 10° NNE 04:25:00 69° N 04:25:00 69° N
COSMOS 2428 4.3 04:28:26 22° NNW 04:28:26 22° NNW 04:31:31 10° N
Meteor 2-10 Rocket 3.6 04:27:19 58° SSE 04:28:18 75° E 04:33:31 10° NNE
Cosmos 1943 Rocket 2.8 04:31:14 14° NNW 04:35:49 54° ENE 04:41:13 10° SE
Cosmos 2297 3.9 04:37:33 52° SSW 04:37:33 52° SSW 04:41:57 10° SSE
NOSS 3-1 (C) 4.1 04:36:43 50° W 04:37:36 52° WSW 04:45:50 10° SSE
Lacrosse 5 2.1 04:38:33 55° NNW 04:39:22 65° NNE 04:44:25 10° ESE
SL-16 R/B 2.1 04:41:35 56° SSW 04:42:52 88° WNW 04:48:36 10° NNE
Cosmos 292 Rocket 3.6 04:43:27 82° SSW 04:43:27 82° SSW 04:48:01 10° SSE
CZ-2C R/B 2.4 04:41:42 10° N 04:46:55 76° WNW 04:47:46 61° SW
Cosmos 1339 Rocket 4.4 04:42:42 10° S 04:48:47 86° E 04:54:56 10° N
SKYMED 2 4.2 04:50:06 10° SSE 04:54:20 56° ENE 04:58:36 10° N
Cosmos 2369 Rocket 2.6 04:50:41 10° NNW 04:56:23 62° ENE 05:02:03 10° SE
STARLINK-1190 4.5 05:01:09 29° NNE 05:01:09 29° NNE 05:03:17 10° ENE
Cosmos 1500 Rocket 4.0 04:56:58 10° N 05:01:25 62° ENE 05:05:47 10° SSE
NOSS 2-1 (E) 3.2 05:01:57 64° N 05:01:57 64° N 05:05:23 10° NE
Okean O Rocket 4.2 04:59:00 10° NE 05:02:24 22° E 05:05:46 10° SE
USA 215 4.0 04:58:20 10° ENE 05:04:23 42° N 05:07:21 27° WNW
Meteor 2-3 Rocket 3.7 04:59:36 10° NNW 05:05:22 87° W 05:11:10 10° S
BREEZE-M DEB (TANK) 3.9 05:04:51 50° WSW 05:05:59 84° SSE 05:16:06 10° ENE
Meteor PRIRODA 3.7 05:07:00 10° NNE 05:10:44 76° ESE 05:14:07 12° S
Cosmos 1743 Rocket 3.4 05:08:32 10° N 05:12:53 87° E 05:17:13 10° S
Cosmos 2333 Rocket 4.1 05:13:49 14° NW 05:14:00 14° NNW 05:17:00 10° N
Cosmos 1484 Rocket 2.7 05:12:03 10° NNE 05:16:00 86° WNW 05:19:58 10° SSW
CZ-4C R/B 3.2 05:14:51 27° NW 05:16:19 31° NNW 05:21:59 10° NE
BREEZE M DEB (TANK) 4.4 05:08:49 21° WNW 05:16:45 44° SW 05:21:12 10° SSE
STARLINK-1149 4.4 05:17:26 24° NNE 05:17:26 24° NNE 05:19:11 10° NE
CZ-4B R/B 2.5 05:13:47 10° N 05:17:30 67° WNW 05:18:22 47° SW
STARLINK-1129 4.1 05:17:57 32° N 05:17:57 32° N 05:20:53 10° ENE
STARLINK-1134 4.0 05:19:36 32° N 05:19:40 32° N 05:22:36 10° ENE
STARLINK-1132 4.2 05:20:13 25° N 05:20:13 25° N 05:22:12 10° NE
ALOS 2.5 05:15:10 10° NNE 05:19:51 70° ESE 05:24:30 10° S
ATLAS CENTAUR R/B 2.0 05:19:22 40° WNW 05:20:11 44° NW 05:24:28 10° NNE
Cosmos 1459 Rocket 4.3 05:14:16 10° N 05:20:25 68° E 05:26:38 10° SSE
STARLINK-1135 4.0 05:21:47 32° NNW 05:21:56 32° N 05:24:52 10° ENE
H-2A R/B 2.6 05:18:11 10° N 05:22:27 55° WNW 05:25:10 22° SW
STARLINK-1150 4.2 05:23:03 25° N 05:23:03 25° N 05:25:09 10° ENE
STARLINK-1163 4.1 05:24:05 26° N 05:24:05 26° N 05:26:14 10° ENE
STARLINK-1141 4.0 05:23:49 31° NNW 05:24:04 32° N 05:27:00 10° ENE
STARLINK-1173 4.1 05:25:53 26° N 05:25:53 26° N 05:28:07 10° ENE
STARLINK-1140 4.0 05:25:39 31° NNW 05:26:00 32° N 05:28:55 10° ENE
STARLINK-1177 4.1 05:26:26 26° N 05:26:26 26° N 05:28:43 10° ENE
Cosmos 1842 Rocket 3.5 05:22:23 10° SSW 05:26:49 66° WNW 05:31:18 10° N
Cosmos 614 Rocket 4.4 05:21:50 10° S 05:26:55 66° ESE 05:32:05 10° NNE
STARLINK-1167 4.1 05:27:49 26° N 05:27:49 26° N 05:30:11 10° ENE
STARLINK-1156 4.0 05:27:35 30° NNW 05:28:00 32° N 05:30:56 10° ENE
PSLV R/B 3.6 05:24:29 10° NNE 05:28:13 85° E 05:32:00 10° SSW
STARLINK-1148 4.1 05:29:31 30° NNW 05:30:02 31° N 05:32:58 10° ENE
STARLINK-1158 4.1 05:31:27 29° NNW 05:32:03 31° N 05:34:59 10° ENE
IDEFIX/ARIANE 42P 4.3 05:29:08 10° NNW 05:31:15 15° NW 05:31:15 15° NW
STARLINK-1136 4.0 05:32:38 25° N 05:32:48 25° N 05:35:09 10° ENE
Cosmos 1802 Rocket 4.4 05:27:17 10° N 05:33:44 71° E 05:40:09 10° SSE
Cosmos 1633 3.0 05:30:29 10° N 05:34:06 63° E 05:37:42 10° SSE
Meteor 1-27 4.1 05:29:18 10° SSW 05:34:51 75° WNW 05:40:26 10° N
Cosmos 1356 Rocket 4.0 05:34:32 32° W 05:34:54 33° WNW 05:38:38 10° N
Aureole 2 Rocket 2.0 05:37:36 18° NNW 05:39:43 88° ENE 05:42:50 10° SSE
COSMO-SKYMED 1 2.7 05:38:11 10° S 05:42:23 48° W 05:46:36 10° NNW
Meteor 1-31 Rocket 3.6 05:40:04 10° N 05:43:21 28° WNW 05:43:49 27° W
Cosmos 2251 Rocket 4.2 05:41:43 23° WSW 05:44:08 33° WNW 05:48:56 10° N
Cosmos 2237 Rocket 3.7 05:44:52 16° NW 05:46:13 18° NW 05:49:57 10° N
Cosmos 921 Rocket 3.0 05:43:33 10° NNW 05:48:02 82° WSW 05:52:24 10° SSE
USA 116 3.0 05:45:06 10° S 05:48:18 68° WSW 05:51:24 10° NNW
GEOS 3 Rocket 4.1 05:53:08 10° NNE 05:58:07 44° NW 06:02:34 13° WSW
Cosmos 2221 2.9 05:54:26 10° SW 05:58:27 39° WNW 06:02:31 10° N
BREEZE-M DEB (TANK) 4.1 05:54:48 18° WNW 05:58:30 72° SSW 06:16:12 10° ESE
STARLINK-1170 4.1 05:57:36 18° NW 05:58:49 25° N 06:01:07 10° ENE
SJ-12 4.2 05:54:58 10° N 05:58:56 46° WNW 06:02:53 10° SW
Cosmos 1400 Rocket 4.0 05:55:19 10° S 05:59:09 46° E 06:03:04 10° NNE
NOSS 2-1 (C) 4.5 05:59:47 18° WNW 06:01:15 24° NNW 06:04:31 10° NNE
Cosmos 1869 3.4 05:58:13 10° SSW 06:02:08 53° WNW 06:06:03 10° N
Cosmos 2016 Rocket 4.0 05:58:42 10° N 06:04:57 84° W 06:11:15 10° S
ATLAS 2AS CENTAUR R/B 4.0 05:59:56 10° NW 06:07:11 40° NNE 06:13:56 10° E
MOS 1-B 4.4 06:02:16 10° N 06:08:01 63° WNW 06:13:45 10° SSW
METEOR-M 4.3 06:04:20 10° N 06:09:30 50° WNW 06:14:38 10° SW
Helios 1A Rocket 3.4 06:05:39 10° NNE 06:09:48 68° ESE 06:13:55 10° S
STARLINK-1162 4.2 06:13:05 13° NW 06:15:31 31° N 06:18:22 10° ENE
STARLINK-1157 4.1 06:14:44 12° WNW 06:17:14 31° N 06:20:06 10° ENE
Cosmos 1238 Rocket 3.8 06:12:05 10° NNW 06:18:21 64° W 06:23:43 10° S
Cosmos 1943 Rocket 3.1 06:14:44 10° NW 06:19:14 26° WSW 06:23:41 10° SSW
STARLINK-1159 4.1 06:16:42 12° WNW 06:19:18 31° N 06:22:10 10° ENE
STARLINK-1179 3.9 06:18:16 11° NW 06:20:19 26° N 06:22:34 10° ENE
STARLINK-1176 3.9 06:18:51 11° NW 06:20:56 26° N 06:23:10 10° ENE
Cosmos 1023 Rocket 4.5 06:15:46 10° SSW 06:21:01 69° WNW 06:26:19 10° NNE
STARLINK-1171 4.1 06:18:31 11° WNW 06:21:12 31° N 06:24:04 10° ENE
Lacrosse 5 2.7 06:17:47 11° WNW 06:22:06 32° SW 06:26:33 10° S
STARLINK-1155 4.1 06:20:19 11° WNW 06:23:05 32° N 06:25:58 10° ENE
Cosmos 2233 Rocket 4.3 06:17:25 10° N 06:23:41 74° E 06:29:59 10° SSE
STARLINK-1153 4.1 06:21:21 10° WNW 06:23:57 30° N 06:26:36 10° ENE
STARLINK-1180 4.1 06:21:34 10° WNW 06:24:11 30° N 06:26:51 10° ENE
CZ-2C R/B 4.2 06:21:48 10° NNW 06:24:16 14° NW 06:26:43 10° W
STARLINK-1174 4.0 06:22:03 10° WNW 06:24:40 30° N 06:27:19 10° ENE
STARLINK-1139 4.0 06:22:16 10° WNW 06:24:53 30° N 06:27:33 10° ENE
STARLINK-1133 4.0 06:22:26 10° WNW 06:25:05 30° N 06:27:44 10° ENE
STARLINK-1166 4.1 06:22:22 10° WNW 06:25:13 32° N 06:28:06 10° ENE
STARLINK-1151 4.0 06:22:41 10° WNW 06:25:20 30° N 06:27:59 10° ENE
STARLINK-1160 4.0 06:23:21 10° WNW 06:26:00 30° N 06:28:40 10° ENE
STARLINK-1161 4.0 06:23:34 10° WNW 06:26:13 30° N 06:28:53 10° ENE
STARLINK-1145 4.0 06:23:48 10° WNW 06:26:27 30° N 06:29:07 10° ENE
STARLINK-1172 4.0 06:23:59 10° WNW 06:26:39 30° N 06:29:19 10° ENE
STARLINK-1165 4.1 06:24:09 10° WNW 06:27:03 32° N 06:29:56 10° ENE
STARLINK-1182 4.0 06:24:29 10° WNW 06:27:09 30° N 06:29:48 10° ENE
STARLINK-1164 4.0 06:24:42 10° WNW 06:27:22 30° N 06:30:02 10° ENE
STARLINK-1168 4.0 06:24:54 10° WNW 06:27:34 30° N 06:30:14 10° ENE
SL-16 R/B 3.6 06:23:40 10° W 06:27:50 20° NW 06:32:00 10° N
STARLINK-1183 4.0 06:25:36 10° WNW 06:28:16 30° N 06:30:55 10° ENE
STARLINK-1181 4.0 06:25:48 10° WNW 06:28:28 30° N 06:31:08 10° ENE
STARLINK-1169 4.1 06:26:05 10° WNW 06:28:59 32° N 06:31:52 10° ENE
STARLINK-1196 4.0 06:26:29 10° WNW 06:29:10 31° N 06:31:49 10° ENE
ADEOS Rocket 3.2 06:23:18 10° S 06:29:22 60° W 06:36:12 10° NNW
STARLINK-1186 4.0 06:26:57 10° WNW 06:29:37 31° N 06:32:17 10° ENE
STARLINK-1185 4.0 06:27:11 10° WNW 06:29:50 31° N 06:32:31 10° ENE
Cosmos 1470 Rocket 4.3 06:25:34 10° N 06:29:59 58° ENE 06:34:23 10° SSE
STARLINK-1175 4.0 06:27:24 10° WNW 06:30:05 31° N 06:32:45 10° ENE
STARLINK-1147 4.0 06:27:36 10° WNW 06:30:17 31° N 06:32:57 10° ENE
STARLINK-1146 4.0 06:27:49 10° WNW 06:30:31 31° N 06:33:11 10° ENE
STARLINK-1152 4.0 06:28:03 10° WNW 06:30:44 31° N 06:33:24 10° ENE
STARLINK-1178 4.1 06:28:00 10° WNW 06:30:55 33° N 06:33:49 10° ENE
STARLINK-1195 4.0 06:28:17 10° WNW 06:30:58 31° N 06:33:38 10° ENE
STARLINK-1137 4.0 06:28:33 10° WNW 06:31:13 31° N 06:33:53 10° ENE
Cosmos 1805 Rocket 4.2 06:27:23 10° NNW 06:31:18 33° W 06:35:11 10° SSW
STARLINK-1142 4.0 06:28:46 10° WNW 06:31:26 31° N 06:34:07 10° ENE
STARLINK-1127 4.0 06:28:58 10° WNW 06:31:38 31° N 06:34:19 10° ENE
STARLINK-1184 4.0 06:29:13 10° WNW 06:31:53 31° N 06:34:33 10° ENE
Cosmos 1954 Rocket 4.0 06:26:37 10° SSW 06:31:56 82° WNW 06:37:18 10° NNE
STARLINK-1193 4.0 06:29:26 10° WNW 06:32:07 31° N 06:34:47 10° ENE
STARLINK-1194 4.0 06:29:38 10° WNW 06:32:19 31° N 06:34:59 10° ENE
STARLINK-1120 4.1 06:29:50 10° WNW 06:32:45 33° N 06:35:40 10° ENE
Cosmos 1862 3.6 06:30:04 10° NNW 06:33:51 44° W 06:37:38 10° SSW
Cosmos 407 Rocket 3.9 06:29:22 10° SW 06:34:25 42° WNW 06:39:28 10° NNE
STARLINK-1131 4.1 06:31:57 10° WNW 06:34:53 33° N 06:37:47 10° ENE
H-2A R/B 2.6 06:31:45 10° N 06:35:32 73° WNW 06:39:13 10° SSW
TELKOM 3 3.2 06:33:46 10° WNW 06:35:51 47° N 06:37:56 10° E
STARLINK-1190 4.1 06:33:48 10° WNW 06:36:44 34° N 06:39:39 10° ENE
Cosmos 482 Debris 3.6 06:35:33 10° W 06:37:11 29° SSW 06:38:54 10° SE
FENGYUN 3A 4.4 06:32:34 10° N 06:37:18 31° WNW 06:42:01 10° WSW
Sich 1 3.5 06:34:28 10° NNW 06:38:27 38° W 06:42:25 10° SSW
Okean O Rocket 1.9 06:34:47 10° N 06:38:57 43° WNW 06:43:04 10° SW
Cosmos 2369 Rocket 3.3 06:35:30 10° NW 06:39:58 24° WSW 06:44:23 10° SSW
Cosmos 1140 Rocket 3.7 06:36:02 10° SW 06:41:07 49° WNW 06:46:14 10° NNE
COSMOS 2455 4.3 06:37:07 10° NNW 06:42:33 33° NE 06:47:56 10° ESE
